Weather History for CXWN - June, 2013

Change the Weather History Date:

Thursday, June 20, 2013

  Actual Average Record
Temperature  
Mean Temperature 70 °F -  
Max Temperature 80 °F - - ()
Min Temperature 61 °F - - ()
Cooling Degree Days 6    
Growing Degree Days 20 (Base 50)    
Moisture  
Dew Point 57 °F    
Average Humidity 63    
Maximum Humidity 85    
Minimum Humidity 46    
Precipitation  
Precipitation 0.20 in - - ()
Sea Level Pressure  
Sea Level Pressure 29.92 in    
Wind  
Wind Speed 5 mph ()    
Max Wind Speed 14 mph    
Max Gust Speed 20 mph    
T = Trace of Precipitation, MM = Missing Value Source: Averaged Metar Reports

Daily Weather History Graph

Daily Weather History Graph

Search for Another Location

Airport or City:

Trip Planner

Search our weather history database for the weather conditions in past years. The results will help you decide how hot, cold, wet, or windy it might be!

Date:

Astronomy

Jun. 20, 2013 Rise Set
Actual Time 5:19 AM CDT 9:40 PM CDT
Civil Twilight 4:35 AM CDT 10:25 PM CDT
Nautical Twilight 3:30 AM CDT 11:30 PM CDT
Astronomical Twilight 2:02 AM CDT 12:57 AM CDT
Moon 6:33 PM CDT (6/20) 3:01 AM CDT (6/20)
Length of Visible Light 17h 50m
Length of Day
16h 21m
Waxing Gibbous, 89% of the Moon is Illuminated
Jun 20
Waxing Gibbous
Jun 23
Full
Jun 29
Last Quarter
Jul 8
New
Jul 15
First Quarter

Hourly Weather History & Observations

Time (CDT) Temp. Dew Point Humidity Pressure Visibility Wind Dir Wind Speed Gust Speed Precip Events Conditions
12:00 AM 66.9 °F 54.3 °F 64% 29.94 in - NNE 5.8 mph - N/A   Unknown
1:00 AM 66 °F 55 °F 58% 29.94 in - NE 3.5 mph - -  
1:00 AM 65.8 °F 54.7 °F 67% 29.94 in - ENE 4.6 mph - N/A   Unknown
2:00 AM 64.6 °F 55.4 °F 72% 29.92 in - ENE 4.6 mph - N/A   Unknown
3:00 AM 63.7 °F 55.0 °F 73% 29.92 in - NE 4.6 mph - N/A   Unknown
4:00 AM 62.6 °F 53.4 °F 72% 29.93 in - ENE 3.5 mph - N/A   Unknown
5:00 AM 62.2 °F 51.6 °F 68% 29.92 in - NE 2.3 mph - N/A   Unknown
6:00 AM 61.9 °F 51.3 °F 68% 29.90 in - NE 4.6 mph - N/A   Unknown
7:00 AM 64 °F 52 °F 57% 29.92 in - ENE 4.6 mph - -  
7:00 AM 64.0 °F 52.3 °F 66% 29.92 in - ENE 5.8 mph - N/A   Unknown
8:00 AM 67.1 °F 54.0 °F 63% 29.93 in - East 6.9 mph - N/A   Unknown
9:00 AM 70.2 °F 56.8 °F 63% 29.94 in - ENE 4.6 mph - N/A   Unknown
10:00 AM 73.0 °F 57.0 °F 57% 29.94 in - ENE 5.8 mph - N/A   Unknown
11:00 AM 74.5 °F 57.9 °F 56% 29.94 in - East 8.1 mph - N/A   Unknown
12:00 PM 75.6 °F 58.6 °F 56% 29.94 in - East 8.1 mph - N/A   Unknown
1:00 PM 77.5 °F 59.7 °F 54% 29.94 in - NE 6.9 mph - N/A   Unknown
2:00 PM 77.7 °F 59.9 °F 54% 29.93 in - ENE 5.8 mph - N/A   Unknown
3:00 PM 79.0 °F 59.7 °F 52% 29.87 in - East 13.8 mph 19.6 mph N/A   Unknown
4:00 PM 79.9 °F 61.0 °F 52% 29.90 in - East 4.6 mph - N/A   Unknown
5:00 PM 78.8 °F 59.4 °F 51% 29.88 in - East 8.1 mph - N/A   Unknown
6:00 PM 78.1 °F 59.5 °F 53% 29.88 in - East 6.9 mph - N/A   Unknown
7:00 PM 77 °F 60 °F 46% 29.88 in - East 5.8 mph - -  
7:00 PM 77.0 °F 60.3 °F 56% 29.88 in - East 5.8 mph - N/A   Unknown
8:00 PM 70.5 °F 64.0 °F 80% 29.93 in - WSW 3.5 mph - 0.05 in   Unknown
9:00 PM 68.4 °F 63.9 °F 85% 29.92 in - NE 3.5 mph - 0.16 in   Unknown
10:00 PM 67.8 °F 62.8 °F 84% 29.91 in - East 2.3 mph - N/A   Unknown
11:00 PM 68.5 °F 61.5 °F 78% 29.90 in - ENE 3.5 mph - N/A   Unknown